Погода в Хотилицах

Россия / Тверская область     56°38′51″N   31°53′11″E
темп.,
°C
ветер,
м/с
пор.,
м/с
влажн.,
%
обл.,
%
осадки,
мм/ч
давл.,
гПа
погр.,
м
17 апреля, сб
сб1700:00+7всв51384100 0.0 1022618
03:00+7всв51182100 0.0 1022578
06:00+6всв4128393 0.0 1023456
09:00+8всв5979100 0.0 1023457
12:00+12всв4768100 0.0 1023851
15:00+13всв4863100 0.1 10231220
18:00+13всв596344 0.0 10221148
21:00+10всв512705 0.0 1022687
18 апреля, вс
вс1800:00+7всв513705 0.0 1023518
03:00+5св513697 0.0 1023455
06:00+4св5147462 0.0 1023477
09:00+7всв611605 0.0 1023643
12:00+11всв58430 0.0 10231318
15:00+13всв57395 0.0 10231751
18:00+12всв47465 0.0 10231821
21:00+7всв311655 0.0 1025323
19 апреля, пн
пн1900:00+6всв412745 0.0 1026441
03:00+4всв411845 0.0 1026369
06:00+3всв310938 0.0 1027332
09:00+7всв487415 0.0 1027581
12:00+11всв465655 0.0 10261512
15:00+10в5658100 0.1 10261539
18:00+8всв3668100 0.0 1026963
21:00+6всв3869100 0.0 1026486
20 апреля, вт
вт2000:00+5в3874100 0.0 1026568
03:00+5всв3775100 0.0 1025596
06:00+3в3779100 0.0 1024580
09:00+5в58487 0.0 1023949
12:00+6в5751100 0.0 10211646
15:00+5в5662100 0.1 10201377
18:00+4в5673100 0.1 10181028
21:00+3всв3996100 0.3 1016542
21 апреля, ср
ср2100:00+3св4988100 0.0 1012737
03:00+3ссв41096100 0.0 1008666
06:00+1ссв41197100 3.0 1005527
09:00+1с3898100 6.4 1003446
12:00+1ссз3799100 0.9 1002364
15:00+1сз3898100 3.5 1002365
18:00+1зсз4998100 1.8 1004399
21:00+1з4898100 2.4 1007673